sat.trackr.live / text

‹ back to catalog

LUCH 5A (SDCM/PRN 140)

NORAD 37951 · 2011-074B

PAYLOAD ACTIVE UNKNOWN

§ Identity

Operator
Country
CIS
Launch date
2011-12-11
Launch site
TYMSC
Launch vehicle
Mass (kg)
RCS (m²)
25.12

Purposes: comms, earth_obs, nav

External: N2YO · Heavens-Above · Gunter

§ Orbital elements

Epoch: 2026-09-15T17:57:59.440032Z

Period
1,436.07 min
Inclination
8.9777°
Eccentricity
0.0003895
Mean motion
1.00273517 rev/d
Perigee alt
35,769.7 km
Apogee alt
35,802.5 km
Semi-major
42,164.2 km
B*
0.0000e+0
RAAN
72.4554°
Arg perigee
121.8300°
Mean anomaly
236.8748°
Rev number
5,395

§ Raw data

LUCH 5A (SDCM/PRN 140)1 37951U 11074B   26258.74860463 -.00000054  00000+0  00000+0 0  99972 37951   8.9777  72.4554 0003895 121.8300 236.8748  1.00273517 53958

JSON: /api/v1/satellites/37951 · /tle

For live sub-satellite position, see the globe view (requires WebGL).

§ Visibility from observer

Set your observer location to see the next 7 days of passes ≥ 10°. The values pass through the URL so the page stays shareable.

No JS? Fill the form by hand. The geolocation button needs JavaScript.